owner,sensor,date,latitude,longitude,vertical_datum,mass_concentration_of_oxygen_in_sea_water,qcFlag 
DISL,ioos:station:DISL:PPTA:1,2013-08-01T00:00:00Z,30.2791,-87.5561,1.152,6.19,1111122 
DISL,ioos:station:DISL:PPTA:1,2013-08-01T00:30:00Z,30.2791,-87.5561,1.135,6.2,1111122 
DISL,ioos:station:DISL:PPTA:1,2013-08-01T01:00:00Z,30.2791,-87.5561,1.136,5.9,1111122 
DISL,ioos:station:DISL:PPTA:1,2013-08-01T01:30:00Z,30.2791,-87.5561,1.143,6.16,1111122 
DISL,ioos:station:DISL:PPTA:1,2013-08-01T02:00:00Z,30.2791,-87.5561,1.148,5.83,1111122 
DISL,ioos:station:DISL:PPTA:1,2013-08-01T02:30:00Z,30.2791,-87.5561,1.165,5.71,1111122 
DISL,ioos:station:DISL:PPTA:1,2013-08-01T03:00:00Z,30.2791,-87.5561,1.15,5.39,1111122 
DISL,ioos:station:DISL:PPTA:1,2013-08-01T03:30:00Z,30.2791,-87.5561,1.139,4.94,1111122 
DISL,ioos:station:DISL:PPTA:1,2013-08-01T04:00:00Z,30.2791,-87.5561,1.152,5.07,1111122 
DISL,ioos:station:DISL:PPTA:1,2013-08-01T04:30:00Z,30.2791,-87.5561,1.179,5.04,1111122 
DISL,ioos:station:DISL:PPTA:1,2013-08-01T05:00:00Z,30.2791,-87.5561,1.196,4.94,1111122 
DISL,ioos:station:DISL:PPTA:1,2013-08-01T05:30:00Z,30.2791,-87.5561,1.212,4.75,1111122 
DISL,ioos:station:DISL:PPTA:1,2013-08-01T06:00:00Z,30.2791,-87.5561,1.229,5.04,1111122 
DISL,ioos:station:DISL:PPTA:1,2013-08-01T06:30:00Z,30.2791,-87.5561,1.243,4.69,1111122 
DISL,ioos:station:DISL:PPTA:1,2013-08-01T07:00:00Z,30.2791,-87.5561,1.237,5.0,1111122 
DISL,ioos:station:DISL:PPTA:1,2013-08-01T07:30:00Z,30.2791,-87.5561,1.256,4.83,1111122 
DISL,ioos:station:DISL:PPTA:1,2013-08-01T08:00:00Z,30.2791,-87.5561,1.294,4.58,1111122 
DISL,ioos:station:DISL:PPTA:1,2013-08-01T08:30:00Z,30.2791,-87.5561,1.302,4.87,1111122 
DISL,ioos:station:DISL:PPTA:1,2013-08-01T09:00:00Z,30.2791,-87.5561,1.319,5.1,1111122 
DISL,ioos:station:DISL:PPTA:1,2013-08-01T09:30:00Z,30.2791,-87.5561,1.321,4.69,1111122 
DISL,ioos:station:DISL:PPTA:1,2013-08-01T10:00:00Z,30.2791,-87.5561,1.342,4.49,1111122 
DISL,ioos:station:DISL:PPTA:1,2013-08-01T10:30:00Z,30.2791,-87.5561,1.341,4.65,1111122 
DISL,ioos:station:DISL:PPTA:1,2013-08-01T11:00:00Z,30.2791,-87.5561,1.35,4.35,1111122 
DISL,ioos:station:DISL:PPTA:1,2013-08-01T11:30:00Z,30.2791,-87.5561,1.358,4.45,1111122 
DISL,ioos:station:DISL:PPTA:1,2013-08-01T12:00:00Z,30.2791,-87.5561,1.351,4.16,1111122 
DISL,ioos:station:DISL:PPTA:1,2013-08-01T12:30:00Z,30.2791,-87.5561,1.362,4.23,1111122 
DISL,ioos:station:DISL:PPTA:1,2013-08-01T13:00:00Z,30.2791,-87.5561,1.375,4.49,1111122 
DISL,ioos:station:DISL:PPTA:1,2013-08-01T13:30:00Z,30.2791,-87.5561,1.347,4.85,1111122 
DISL,ioos:station:DISL:PPTA:1,2013-08-01T14:00:00Z,30.2791,-87.5561,1.342,4.83,1111122 
DISL,ioos:station:DISL:PPTA:1,2013-08-01T14:30:00Z,30.2791,-87.5561,1.326,5.18,1111122 
DISL,ioos:station:DISL:PPTA:1,2013-08-01T15:00:00Z,30.2791,-87.5561,1.308,5.17,1111122 
DISL,ioos:station:DISL:PPTA:1,2013-08-01T15:30:00Z,30.2791,-87.5561,1.295,5.37,1111122 
DISL,ioos:station:DISL:PPTA:1,2013-08-01T16:00:00Z,30.2791,-87.5561,1.276,5.27,1111122 
DISL,ioos:station:DISL:PPTA:1,2013-08-01T16:30:00Z,30.2791,-87.5561,1.266,5.28,1111122 
DISL,ioos:station:DISL:PPTA:1,2013-08-01T17:00:00Z,30.2791,-87.5561,1.285,5.34,1111122 
DISL,ioos:station:DISL:PPTA:1,2013-08-01T17:30:00Z,30.2791,-87.5561,1.276,6.07,1111122 
DISL,ioos:station:DISL:PPTA:1,2013-08-01T18:00:00Z,30.2791,-87.5561,1.25,6.25,1111122 
DISL,ioos:station:DISL:PPTA:1,2013-08-01T18:30:00Z,30.2791,-87.5561,1.244,6.25,1111122 
DISL,ioos:station:DISL:PPTA:1,2013-08-01T19:00:00Z,30.2791,-87.5561,1.228,6.18,1111122 
DISL,ioos:station:DISL:PPTA:1,2013-08-01T19:30:00Z,30.2791,-87.5561,1.232,6.2,1111122 
DISL,ioos:station:DISL:PPTA:1,2013-08-01T20:00:00Z,30.2791,-87.5561,1.208,6.05,1111122 
DISL,ioos:station:DISL:PPTA:1,2013-08-01T20:30:00Z,30.2791,-87.5561,1.165,5.77,1111122 
DISL,ioos:station:DISL:PPTA:1,2013-08-01T21:00:00Z,30.2791,-87.5561,1.172,6.21,1111122 
DISL,ioos:station:DISL:PPTA:1,2013-08-01T21:30:00Z,30.2791,-87.5561,1.147,5.59,1111122 
DISL,ioos:station:DISL:PPTA:1,2013-08-01T22:00:00Z,30.2791,-87.5561,1.194,6.66,1111122 
DISL,ioos:station:DISL:PPTA:1,2013-08-01T22:30:00Z,30.2791,-87.5561,1.141,6.5,1111122 
DISL,ioos:station:DISL:PPTA:1,2013-08-01T23:00:00Z,30.2791,-87.5561,1.138,6.64,1111122 
DISL,ioos:station:DISL:PPTA:1,2013-08-01T23:30:00Z,30.2791,-87.5561,1.133,6.17,1111122 
DISL,ioos:station:DISL:PPTA:1,2013-08-02T00:00:00Z,30.2791,-87.5561,1.157,6.37,1111122 
DISL,ioos:station:DISL:PPTA:1,2013-08-02T00:30:00Z,30.2791,-87.5561,1.141,6.32,1111122 
DISL,ioos:station:DISL:PPTA:1,2013-08-02T01:00:00Z,30.2791,-87.5561,1.129,5.85,1111122 
DISL,ioos:station:DISL:PPTA:1,2013-08-02T01:30:00Z,30.2791,-87.5561,1.16,5.56,1111122 
DISL,ioos:station:DISL:PPTA:1,2013-08-02T02:00:00Z,30.2791,-87.5561,1.154,5.79,1111122 
DISL,ioos:station:DISL:PPTA:1,2013-08-02T02:30:00Z,30.2791,-87.5561,1.172,5.56,1111122 
DISL,ioos:station:DISL:PPTA:1,2013-08-02T03:00:00Z,30.2791,-87.5561,1.139,5.56,1111122 
DISL,ioos:station:DISL:PPTA:1,2013-08-02T03:30:00Z,30.2791,-87.5561,1.151,5.8,1111122 
DISL,ioos:station:DISL:PPTA:1,2013-08-02T04:00:00Z,30.2791,-87.5561,1.18,5.42,1111122 
DISL,ioos:station:DISL:PPTA:1,2013-08-02T04:30:00Z,30.2791,-87.5561,1.163,5.03,1111122 
DISL,ioos:station:DISL:PPTA:1,2013-08-02T05:00:00Z,30.2791,-87.5561,1.168,4.78,1111122 
DISL,ioos:station:DISL:PPTA:1,2013-08-02T05:30:00Z,30.2791,-87.5561,1.175,3.89,1111122 
DISL,ioos:station:DISL:PPTA:1,2013-08-02T06:00:00Z,30.2791,-87.5561,1.212,4.22,1111122 
DISL,ioos:station:DISL:PPTA:1,2013-08-02T06:30:00Z,30.2791,-87.5561,1.235,4.26,1111122 
DISL,ioos:station:DISL:PPTA:1,2013-08-02T07:00:00Z,30.2791,-87.5561,1.223,3.97,1111122 
DISL,ioos:station:DISL:PPTA:1,2013-08-02T07:30:00Z,30.2791,-87.5561,1.262,4.48,1111122 
DISL,ioos:station:DISL:PPTA:1,2013-08-02T08:00:00Z,30.2791,-87.5561,1.295,4.62,1111122 
DISL,ioos:station:DISL:PPTA:1,2013-08-02T08:30:00Z,30.2791,-87.5561,1.264,4.36,1111122 
DISL,ioos:station:DISL:PPTA:1,2013-08-02T09:00:00Z,30.2791,-87.5561,1.298,4.18,1111122 
DISL,ioos:station:DISL:PPTA:1,2013-08-02T09:30:00Z,30.2791,-87.5561,1.321,4.01,1111122 
DISL,ioos:station:DISL:PPTA:1,2013-08-02T10:00:00Z,30.2791,-87.5561,1.304,3.92,1111122 
DISL,ioos:station:DISL:PPTA:1,2013-08-02T10:30:00Z,30.2791,-87.5561,1.342,3.9,1111122 
DISL,ioos:station:DISL:PPTA:1,2013-08-02T11:00:00Z,30.2791,-87.5561,1.346,4.18,1111122 
DISL,ioos:station:DISL:PPTA:1,2013-08-02T11:30:00Z,30.2791,-87.5561,1.364,3.87,1111122 
DISL,ioos:station:DISL:PPTA:1,2013-08-02T12:00:00Z,30.2791,-87.5561,1.357,4.01,1111122 
DISL,ioos:station:DISL:PPTA:1,2013-08-02T12:30:00Z,30.2791,-87.5561,1.388,4.29,1111122 
DISL,ioos:station:DISL:PPTA:1,2013-08-02T13:00:00Z,30.2791,-87.5561,1.371,4.26,1111122 
DISL,ioos:station:DISL:PPTA:1,2013-08-02T13:30:00Z,30.2791,-87.5561,1.373,4.22,1111122 
DISL,ioos:station:DISL:PPTA:1,2013-08-02T14:00:00Z,30.2791,-87.5561,1.365,4.28,1111122 
DISL,ioos:station:DISL:PPTA:1,2013-08-02T14:30:00Z,30.2791,-87.5561,1.372,4.09,1111122 
DISL,ioos:station:DISL:PPTA:1,2013-08-02T15:00:00Z,30.2791,-87.5561,1.361,5.05,1111122 
DISL,ioos:station:DISL:PPTA:1,2013-08-02T15:30:00Z,30.2791,-87.5561,1.346,4.88,1111122 
DISL,ioos:station:DISL:PPTA:1,2013-08-02T16:00:00Z,30.2791,-87.5561,1.333,4.49,1111122 
DISL,ioos:station:DISL:PPTA:1,2013-08-02T16:30:00Z,30.2791,-87.5561,1.317,5.13,1111122 
DISL,ioos:station:DISL:PPTA:1,2013-08-02T17:00:00Z,30.2791,-87.5561,1.29,6.02,1111122 
DISL,ioos:station:DISL:PPTA:1,2013-08-02T17:30:00Z,30.2791,-87.5561,1.291,6.34,1111122 
DISL,ioos:station:DISL:PPTA:1,2013-08-02T18:00:00Z,30.2791,-87.5561,1.277,6.43,1111122 
DISL,ioos:station:DISL:PPTA:1,2013-08-02T18:30:00Z,30.2791,-87.5561,1.258,6.58,1111122 
DISL,ioos:station:DISL:PPTA:1,2013-08-02T19:00:00Z,30.2791,-87.5561,1.239,6.72,1111122 
DISL,ioos:station:DISL:PPTA:1,2013-08-02T19:30:00Z,30.2791,-87.5561,1.23,6.98,1111122 
DISL,ioos:station:DISL:PPTA:1,2013-08-02T20:00:00Z,30.2791,-87.5561,1.215,6.68,1111122 
DISL,ioos:station:DISL:PPTA:1,2013-08-02T20:30:00Z,30.2791,-87.5561,1.191,7.53,1111122 
DISL,ioos:station:DISL:PPTA:1,2013-08-02T21:00:00Z,30.2791,-87.5561,1.177,7.58,1111122 
DISL,ioos:station:DISL:PPTA:1,2013-08-02T21:30:00Z,30.2791,-87.5561,1.18,7.5,1111122 
DISL,ioos:station:DISL:PPTA:1,2013-08-02T22:00:00Z,30.2791,-87.5561,1.161,7.51,1111122 
DISL,ioos:station:DISL:PPTA:1,2013-08-02T22:30:00Z,30.2791,-87.5561,1.162,7.63,1111122 
DISL,ioos:station:DISL:PPTA:1,2013-08-02T23:00:00Z,30.2791,-87.5561,1.156,7.71,1111122 
DISL,ioos:station:DISL:PPTA:1,2013-08-02T23:30:00Z,30.2791,-87.5561,1.146,7.67,1111122 
DISL,ioos:station:DISL:PPTA:1,2013-08-03T00:00:00Z,30.2791,-87.5561,1.144,7.48,1111122 
DISL,ioos:station:DISL:PPTA:1,2013-08-03T00:30:00Z,30.2791,-87.5561,1.128,7.48,1111122 
DISL,ioos:station:DISL:PPTA:1,2013-08-03T01:00:00Z,30.2791,-87.5561,1.147,7.25,1111122 
DISL,ioos:station:DISL:PPTA:1,2013-08-03T01:30:00Z,30.2791,-87.5561,1.145,6.75,1111122 
DISL,ioos:station:DISL:PPTA:1,2013-08-03T02:00:00Z,30.2791,-87.5561,1.159,7.07,1111122 
DISL,ioos:station:DISL:PPTA:1,2013-08-03T02:30:00Z,30.2791,-87.5561,1.161,7.08,1111122 
DISL,ioos:station:DISL:PPTA:1,2013-08-03T03:00:00Z,30.2791,-87.5561,1.154,6.95,1111122 
DISL,ioos:station:DISL:PPTA:1,2013-08-03T03:30:00Z,30.2791,-87.5561,1.152,6.99,1111122 
DISL,ioos:station:DISL:PPTA:1,2013-08-03T04:00:00Z,30.2791,-87.5561,1.169,6.65,1111122 
DISL,ioos:station:DISL:PPTA:1,2013-08-03T04:30:00Z,30.2791,-87.5561,1.172,6.85,1111122 
DISL,ioos:station:DISL:PPTA:1,2013-08-03T05:00:00Z,30.2791,-87.5561,1.159,6.81,1111122 
DISL,ioos:station:DISL:PPTA:1,2013-08-03T05:30:00Z,30.2791,-87.5561,1.154,6.03,1111122 
DISL,ioos:station:DISL:PPTA:1,2013-08-03T06:00:00Z,30.2791,-87.5561,1.163,4.69,1111122 
DISL,ioos:station:DISL:PPTA:1,2013-08-03T06:30:00Z,30.2791,-87.5561,1.183,4.76,1111122 
DISL,ioos:station:DISL:PPTA:1,2013-08-03T07:00:00Z,30.2791,-87.5561,1.205,4.69,1111122 
DISL,ioos:station:DISL:PPTA:1,2013-08-03T07:30:00Z,30.2791,-87.5561,1.231,5.13,1111122 
DISL,ioos:station:DISL:PPTA:1,2013-08-03T08:00:00Z,30.2791,-87.5561,1.245,5.09,1111122 
DISL,ioos:station:DISL:PPTA:1,2013-08-03T08:30:00Z,30.2791,-87.5561,1.265,4.98,1111122 
DISL,ioos:station:DISL:PPTA:1,2013-08-03T09:00:00Z,30.2791,-87.5561,1.283,5.27,1111122 
DISL,ioos:station:DISL:PPTA:1,2013-08-03T09:30:00Z,30.2791,-87.5561,1.294,4.58,1111122 
DISL,ioos:station:DISL:PPTA:1,2013-08-03T10:00:00Z,30.2791,-87.5561,1.314,4.72,1111122 
DISL,ioos:station:DISL:PPTA:1,2013-08-03T10:30:00Z,30.2791,-87.5561,1.322,4.24,1111122 
DISL,ioos:station:DISL:PPTA:1,2013-08-03T11:00:00Z,30.2791,-87.5561,1.347,4.47,1111122 
DISL,ioos:station:DISL:PPTA:1,2013-08-03T11:30:00Z,30.2791,-87.5561,1.351,4.35,1111122 
DISL,ioos:station:DISL:PPTA:1,2013-08-03T12:00:00Z,30.2791,-87.5561,1.356,4.8,1111122 
DISL,ioos:station:DISL:PPTA:1,2013-08-03T12:30:00Z,30.2791,-87.5561,1.371,4.81,1111122 
DISL,ioos:station:DISL:PPTA:1,2013-08-03T13:00:00Z,30.2791,-87.5561,1.374,4.55,1111122 
DISL,ioos:station:DISL:PPTA:1,2013-08-03T13:30:00Z,30.2791,-87.5561,1.37,4.9,1111122 
DISL,ioos:station:DISL:PPTA:1,2013-08-03T14:00:00Z,30.2791,-87.5561,1.375,5.22,1111122 
DISL,ioos:station:DISL:PPTA:1,2013-08-03T14:30:00Z,30.2791,-87.5561,1.362,5.23,1111122 
DISL,ioos:station:DISL:PPTA:1,2013-08-03T15:00:00Z,30.2791,-87.5561,1.359,5.3,1111122 
DISL,ioos:station:DISL:PPTA:1,2013-08-03T15:30:00Z,30.2791,-87.5561,1.348,5.6,1111122 
DISL,ioos:station:DISL:PPTA:1,2013-08-03T16:00:00Z,30.2791,-87.5561,1.324,5.42,1111122 
DISL,ioos:station:DISL:PPTA:1,2013-08-03T16:30:00Z,30.2791,-87.5561,1.31,6.05,1111122 
DISL,ioos:station:DISL:PPTA:1,2013-08-03T17:00:00Z,30.2791,-87.5561,1.3,5.88,1111122 
DISL,ioos:station:DISL:PPTA:1,2013-08-03T17:30:00Z,30.2791,-87.5561,1.276,6.36,1111122 
DISL,ioos:station:DISL:PPTA:1,2013-08-03T18:00:00Z,30.2791,-87.5561,1.273,6.71,1111122 
DISL,ioos:station:DISL:PPTA:1,2013-08-03T18:30:00Z,30.2791,-87.5561,1.249,6.69,1111122 
DISL,ioos:station:DISL:PPTA:1,2013-08-03T19:00:00Z,30.2791,-87.5561,1.223,6.96,1111122 
DISL,ioos:station:DISL:PPTA:1,2013-08-03T19:30:00Z,30.2791,-87.5561,1.202,6.84,1111122 
DISL,ioos:station:DISL:PPTA:1,2013-08-03T20:00:00Z,30.2791,-87.5561,1.191,6.76,1111122 
DISL,ioos:station:DISL:PPTA:1,2013-08-03T20:30:00Z,30.2791,-87.5561,1.156,6.94,1111122 
DISL,ioos:station:DISL:PPTA:1,2013-08-03T21:00:00Z,30.2791,-87.5561,1.139,7.39,1111122 
DISL,ioos:station:DISL:PPTA:1,2013-08-03T21:30:00Z,30.2791,-87.5561,1.137,7.46,1111122 
DISL,ioos:station:DISL:PPTA:1,2013-08-03T22:00:00Z,30.2791,-87.5561,1.122,7.3,1111122 
DISL,ioos:station:DISL:PPTA:1,2013-08-03T22:30:00Z,30.2791,-87.5561,1.12,7.37,1111122 
DISL,ioos:station:DISL:PPTA:1,2013-08-03T23:00:00Z,30.2791,-87.5561,1.104,7.33,1111122 
DISL,ioos:station:DISL:PPTA:1,2013-08-03T23:30:00Z,30.2791,-87.5561,1.095,7.12,1111122 
DISL,ioos:station:DISL:PPTA:1,2013-08-04T00:00:00Z,30.2791,-87.5561,1.079,6.82,1111122 
DISL,ioos:station:DISL:PPTA:1,2013-08-04T00:30:00Z,30.2791,-87.5561,1.086,6.99,1111122 
DISL,ioos:station:DISL:PPTA:1,2013-08-04T01:00:00Z,30.2791,-87.5561,1.092,6.65,1111122 
DISL,ioos:station:DISL:PPTA:1,2013-08-04T01:30:00Z,30.2791,-87.5561,1.088,6.52,1111122 
DISL,ioos:station:DISL:PPTA:1,2013-08-04T02:00:00Z,30.2791,-87.5561,1.081,6.62,1111122 
DISL,ioos:station:DISL:PPTA:1,2013-08-04T02:30:00Z,30.2791,-87.5561,1.098,6.54,1111122 
DISL,ioos:station:DISL:PPTA:1,2013-08-04T03:00:00Z,30.2791,-87.5561,1.099,6.34,1111122 
DISL,ioos:station:DISL:PPTA:1,2013-08-04T03:30:00Z,30.2791,-87.5561,1.1,6.04,1111122 
DISL,ioos:station:DISL:PPTA:1,2013-08-04T04:00:00Z,30.2791,-87.5561,1.111,6.2,1111122 
DISL,ioos:station:DISL:PPTA:1,2013-08-04T04:30:00Z,30.2791,-87.5561,1.106,6.31,1111122 
DISL,ioos:station:DISL:PPTA:1,2013-08-04T05:00:00Z,30.2791,-87.5561,1.099,5.89,1111122 
DISL,ioos:station:DISL:PPTA:1,2013-08-04T05:30:00Z,30.2791,-87.5561,1.092,5.2,1111122 
DISL,ioos:station:DISL:PPTA:1,2013-08-04T06:00:00Z,30.2791,-87.5561,1.09,6.34,1111122 
DISL,ioos:station:DISL:PPTA:1,2013-08-04T06:30:00Z,30.2791,-87.5561,1.095,6.06,1111122 
DISL,ioos:station:DISL:PPTA:1,2013-08-04T07:00:00Z,30.2791,-87.5561,1.117,4.87,1111122 
DISL,ioos:station:DISL:PPTA:1,2013-08-04T07:30:00Z,30.2791,-87.5561,1.107,4.18,1111122 
DISL,ioos:station:DISL:PPTA:1,2013-08-04T08:00:00Z,30.2791,-87.5561,1.141,4.22,1111122 
DISL,ioos:station:DISL:PPTA:1,2013-08-04T08:30:00Z,30.2791,-87.5561,1.179,4.44,1111122 
DISL,ioos:station:DISL:PPTA:1,2013-08-04T09:00:00Z,30.2791,-87.5561,1.192,4.59,1111122 
DISL,ioos:station:DISL:PPTA:1,2013-08-04T09:30:00Z,30.2791,-87.5561,1.201,4.79,1111122 
DISL,ioos:station:DISL:PPTA:1,2013-08-04T10:00:00Z,30.2791,-87.5561,1.207,4.63,1111122 
DISL,ioos:station:DISL:PPTA:1,2013-08-04T10:30:00Z,30.2791,-87.5561,1.232,4.5,1111122 
DISL,ioos:station:DISL:PPTA:1,2013-08-04T11:00:00Z,30.2791,-87.5561,1.246,4.19,1111122 
DISL,ioos:station:DISL:PPTA:1,2013-08-04T11:30:00Z,30.2791,-87.5561,1.257,4.05,1111122 
DISL,ioos:station:DISL:PPTA:1,2013-08-04T12:00:00Z,30.2791,-87.5561,1.271,4.1,1111122 
DISL,ioos:station:DISL:PPTA:1,2013-08-04T12:30:00Z,30.2791,-87.5561,1.271,4.21,1111122 
DISL,ioos:station:DISL:PPTA:1,2013-08-04T13:00:00Z,30.2791,-87.5561,1.283,4.22,1111122 
DISL,ioos:station:DISL:PPTA:1,2013-08-04T13:30:00Z,30.2791,-87.5561,1.301,4.11,1111122 
DISL,ioos:station:DISL:PPTA:1,2013-08-04T14:00:00Z,30.2791,-87.5561,1.292,4.55,1111122 
DISL,ioos:station:DISL:PPTA:1,2013-08-04T14:30:00Z,30.2791,-87.5561,1.298,4.21,1111122 
DISL,ioos:station:DISL:PPTA:1,2013-08-04T15:00:00Z,30.2791,-87.5561,1.296,4.31,1111122 
DISL,ioos:station:DISL:PPTA:1,2013-08-04T15:30:00Z,30.2791,-87.5561,1.296,4.61,1111122 
DISL,ioos:station:DISL:PPTA:1,2013-08-04T16:00:00Z,30.2791,-87.5561,1.29,4.81,1111122 
DISL,ioos:station:DISL:PPTA:1,2013-08-04T16:30:00Z,30.2791,-87.5561,1.278,4.77,1111122 
DISL,ioos:station:DISL:PPTA:1,2013-08-04T17:00:00Z,30.2791,-87.5561,1.261,4.86,1111122 
DISL,ioos:station:DISL:PPTA:1,2013-08-04T17:30:00Z,30.2791,-87.5561,1.228,5.61,1111122 
DISL,ioos:station:DISL:PPTA:1,2013-08-04T18:00:00Z,30.2791,-87.5561,1.227,6.0,1111122 
DISL,ioos:station:DISL:PPTA:1,2013-08-04T18:30:00Z,30.2791,-87.5561,1.201,5.7,1111122 
DISL,ioos:station:DISL:PPTA:1,2013-08-04T19:00:00Z,30.2791,-87.5561,1.189,5.54,1111122 
DISL,ioos:station:DISL:PPTA:1,2013-08-04T19:30:00Z,30.2791,-87.5561,1.168,5.97,1111122 
DISL,ioos:station:DISL:PPTA:1,2013-08-04T20:00:00Z,30.2791,-87.5561,1.164,6.63,1111122 
DISL,ioos:station:DISL:PPTA:1,2013-08-04T20:30:00Z,30.2791,-87.5561,1.147,6.37,1111122 
DISL,ioos:station:DISL:PPTA:1,2013-08-04T21:00:00Z,30.2791,-87.5561,1.138,6.81,1111122 
DISL,ioos:station:DISL:PPTA:1,2013-08-04T21:30:00Z,30.2791,-87.5561,1.13,7.16,1111122 
DISL,ioos:station:DISL:PPTA:1,2013-08-04T22:00:00Z,30.2791,-87.5561,1.104,7.07,1111122 
DISL,ioos:station:DISL:PPTA:1,2013-08-04T22:30:00Z,30.2791,-87.5561,1.108,7.44,1111122 
DISL,ioos:station:DISL:PPTA:1,2013-08-04T23:00:00Z,30.2791,-87.5561,1.108,7.46,1111122 
DISL,ioos:station:DISL:PPTA:1,2013-08-04T23:30:00Z,30.2791,-87.5561,1.107,7.37,1111122 
DISL,ioos:station:DISL:PPTA:1,2013-08-05T00:00:00Z,30.2791,-87.5561,1.096,7.38,1111122 
DISL,ioos:station:DISL:PPTA:1,2013-08-05T00:30:00Z,30.2791,-87.5561,1.091,6.74,1111122 
DISL,ioos:station:DISL:PPTA:1,2013-08-05T01:00:00Z,30.2791,-87.5561,1.096,7.04,1111122 
DISL,ioos:station:DISL:PPTA:1,2013-08-05T01:30:00Z,30.2791,-87.5561,1.099,6.8,1111122 
DISL,ioos:station:DISL:PPTA:1,2013-08-05T02:00:00Z,30.2791,-87.5561,1.091,6.39,1111122 
DISL,ioos:station:DISL:PPTA:1,2013-08-05T02:30:00Z,30.2791,-87.5561,1.093,6.02,1111122 
DISL,ioos:station:DISL:PPTA:1,2013-08-05T03:00:00Z,30.2791,-87.5561,1.098,5.97,1111122 
DISL,ioos:station:DISL:PPTA:1,2013-08-05T03:30:00Z,30.2791,-87.5561,1.094,5.83,1111122 
DISL,ioos:station:DISL:PPTA:1,2013-08-05T04:00:00Z,30.2791,-87.5561,1.097,5.67,1111122 
DISL,ioos:station:DISL:PPTA:1,2013-08-05T04:30:00Z,30.2791,-87.5561,1.089,6.15,1111122 
DISL,ioos:station:DISL:PPTA:1,2013-08-05T05:00:00Z,30.2791,-87.5561,1.093,5.81,1111122 
DISL,ioos:station:DISL:PPTA:1,2013-08-05T05:30:00Z,30.2791,-87.5561,1.101,5.28,1111122 
DISL,ioos:station:DISL:PPTA:1,2013-08-05T06:00:00Z,30.2791,-87.5561,1.096,5.66,1111122 
DISL,ioos:station:DISL:PPTA:1,2013-08-05T06:30:00Z,30.2791,-87.5561,1.132,4.56,1111122 
DISL,ioos:station:DISL:PPTA:1,2013-08-05T07:00:00Z,30.2791,-87.5561,1.104,4.49,1111122 
DISL,ioos:station:DISL:PPTA:1,2013-08-05T07:30:00Z,30.2791,-87.5561,1.127,4.23,1111122 
DISL,ioos:station:DISL:PPTA:1,2013-08-05T08:00:00Z,30.2791,-87.5561,1.14,4.17,1111122 
DISL,ioos:station:DISL:PPTA:1,2013-08-05T08:30:00Z,30.2791,-87.5561,1.12,4.19,1111122 
DISL,ioos:station:DISL:PPTA:1,2013-08-05T09:00:00Z,30.2791,-87.5561,1.179,4.26,1111122 
DISL,ioos:station:DISL:PPTA:1,2013-08-05T09:30:00Z,30.2791,-87.5561,1.186,4.02,1111122 
DISL,ioos:station:DISL:PPTA:1,2013-08-05T10:00:00Z,30.2791,-87.5561,1.206,3.9,1111122 
DISL,ioos:station:DISL:PPTA:1,2013-08-05T10:30:00Z,30.2791,-87.5561,1.226,3.76,1111122 
DISL,ioos:station:DISL:PPTA:1,2013-08-05T11:00:00Z,30.2791,-87.5561,1.24,3.76,1111122 
DISL,ioos:station:DISL:PPTA:1,2013-08-05T11:30:00Z,30.2791,-87.5561,1.265,3.43,1111122 
DISL,ioos:station:DISL:PPTA:1,2013-08-05T12:00:00Z,30.2791,-87.5561,1.275,3.54,1111122 
DISL,ioos:station:DISL:PPTA:1,2013-08-05T12:30:00Z,30.2791,-87.5561,1.28,3.27,1111122 
DISL,ioos:station:DISL:PPTA:1,2013-08-05T13:00:00Z,30.2791,-87.5561,1.285,3.44,1111122 
DISL,ioos:station:DISL:PPTA:1,2013-08-05T13:30:00Z,30.2791,-87.5561,1.295,3.66,1111122 
DISL,ioos:station:DISL:PPTA:1,2013-08-05T14:00:00Z,30.2791,-87.5561,1.309,3.94,1111122 
DISL,ioos:station:DISL:PPTA:1,2013-08-05T14:30:00Z,30.2791,-87.5561,1.312,3.64,1111122 
DISL,ioos:station:DISL:PPTA:1,2013-08-05T15:00:00Z,30.2791,-87.5561,1.312,3.87,1111122 
DISL,ioos:station:DISL:PPTA:1,2013-08-05T15:30:00Z,30.2791,-87.5561,1.301,3.87,1111122 
DISL,ioos:station:DISL:PPTA:1,2013-08-05T16:00:00Z,30.2791,-87.5561,1.285,3.77,1111122 
DISL,ioos:station:DISL:PPTA:1,2013-08-05T16:30:00Z,30.2791,-87.5561,1.281,4.01,1111122 
DISL,ioos:station:DISL:PPTA:1,2013-08-05T17:00:00Z,30.2791,-87.5561,1.269,4.35,1111122 
DISL,ioos:station:DISL:PPTA:1,2013-08-05T17:30:00Z,30.2791,-87.5561,1.244,5.18,1111122 
DISL,ioos:station:DISL:PPTA:1,2013-08-05T18:00:00Z,30.2791,-87.5561,1.235,5.6,1111122 
DISL,ioos:station:DISL:PPTA:1,2013-08-05T18:30:00Z,30.2791,-87.5561,1.2,5.35,1111122 
DISL,ioos:station:DISL:PPTA:1,2013-08-05T19:00:00Z,30.2791,-87.5561,1.184,5.47,1111122 
DISL,ioos:station:DISL:PPTA:1,2013-08-05T19:30:00Z,30.2791,-87.5561,1.167,6.42,1111122 
DISL,ioos:station:DISL:PPTA:1,2013-08-05T20:00:00Z,30.2791,-87.5561,1.154,6.69,1111122 
DISL,ioos:station:DISL:PPTA:1,2013-08-05T20:30:00Z,30.2791,-87.5561,1.144,6.76,1111122 
DISL,ioos:station:DISL:PPTA:1,2013-08-05T21:00:00Z,30.2791,-87.5561,1.132,6.53,1111122 
DISL,ioos:station:DISL:PPTA:1,2013-08-05T21:30:00Z,30.2791,-87.5561,1.131,6.99,1111122 
DISL,ioos:station:DISL:PPTA:1,2013-08-05T22:00:00Z,30.2791,-87.5561,1.106,6.16,1111122 
DISL,ioos:station:DISL:PPTA:1,2013-08-05T22:30:00Z,30.2791,-87.5561,1.089,6.75,1111122 
DISL,ioos:station:DISL:PPTA:1,2013-08-05T23:00:00Z,30.2791,-87.5561,1.081,6.41,1111122 
DISL,ioos:station:DISL:PPTA:1,2013-08-05T23:30:00Z,30.2791,-87.5561,1.083,6.66,1111122 
DISL,ioos:station:DISL:PPTA:1,2013-08-06T00:00:00Z,30.2791,-87.5561,1.079,6.92,1111122 
DISL,ioos:station:DISL:PPTA:1,2013-08-06T00:30:00Z,30.2791,-87.5561,1.077,6.78,1111122 
DISL,ioos:station:DISL:PPTA:1,2013-08-06T01:00:00Z,30.2791,-87.5561,1.064,6.6,1111122 
DISL,ioos:station:DISL:PPTA:1,2013-08-06T01:30:00Z,30.2791,-87.5561,1.035,6.56,1111122 
DISL,ioos:station:DISL:PPTA:1,2013-08-06T02:00:00Z,30.2791,-87.5561,1.057,6.62,1111122 
DISL,ioos:station:DISL:PPTA:1,2013-08-06T02:30:00Z,30.2791,-87.5561,1.078,6.32,1111122 
DISL,ioos:station:DISL:PPTA:1,2013-08-06T03:00:00Z,30.2791,-87.5561,1.068,6.36,1111122 
DISL,ioos:station:DISL:PPTA:1,2013-08-06T03:30:00Z,30.2791,-87.5561,1.07,6.04,1111122 
DISL,ioos:station:DISL:PPTA:1,2013-08-06T04:00:00Z,30.2791,-87.5561,1.063,6.17,1111122 
DISL,ioos:station:DISL:PPTA:1,2013-08-06T04:30:00Z,30.2791,-87.5561,1.059,6.01,1111122 
DISL,ioos:station:DISL:PPTA:1,2013-08-06T05:00:00Z,30.2791,-87.5561,1.076,5.68,1111122 
DISL,ioos:station:DISL:PPTA:1,2013-08-06T05:30:00Z,30.2791,-87.5561,1.068,5.86,1111122 
DISL,ioos:station:DISL:PPTA:1,2013-08-06T06:00:00Z,30.2791,-87.5561,1.065,5.43,1111122 
DISL,ioos:station:DISL:PPTA:1,2013-08-06T06:30:00Z,30.2791,-87.5561,1.076,5.6,1111122 
DISL,ioos:station:DISL:PPTA:1,2013-08-06T07:00:00Z,30.2791,-87.5561,1.081,5.03,1111122 
DISL,ioos:station:DISL:PPTA:1,2013-08-06T07:30:00Z,30.2791,-87.5561,1.088,4.71,1111122 
DISL,ioos:station:DISL:PPTA:1,2013-08-06T08:00:00Z,30.2791,-87.5561,1.074,4.15,1111122 
DISL,ioos:station:DISL:PPTA:1,2013-08-06T08:30:00Z,30.2791,-87.5561,1.097,4.02,1111122 
DISL,ioos:station:DISL:PPTA:1,2013-08-06T09:00:00Z,30.2791,-87.5561,1.103,4.12,1111122 
DISL,ioos:station:DISL:PPTA:1,2013-08-06T09:30:00Z,30.2791,-87.5561,1.117,4.09,1111122 
DISL,ioos:station:DISL:PPTA:1,2013-08-06T10:00:00Z,30.2791,-87.5561,1.155,4.07,1111122 
DISL,ioos:station:DISL:PPTA:1,2013-08-06T10:30:00Z,30.2791,-87.5561,1.171,4.04,1111122 
DISL,ioos:station:DISL:PPTA:1,2013-08-06T11:00:00Z,30.2791,-87.5561,1.186,3.93,1111122 
DISL,ioos:station:DISL:PPTA:1,2013-08-06T11:30:00Z,30.2791,-87.5561,1.215,3.68,1111122 
DISL,ioos:station:DISL:PPTA:1,2013-08-06T12:00:00Z,30.2791,-87.5561,1.232,3.98,1111122 
DISL,ioos:station:DISL:PPTA:1,2013-08-06T12:30:00Z,30.2791,-87.5561,1.25,4.07,1111122 
DISL,ioos:station:DISL:PPTA:1,2013-08-06T13:00:00Z,30.2791,-87.5561,1.262,4.13,1111122 
DISL,ioos:station:DISL:PPTA:1,2013-08-06T13:30:00Z,30.2791,-87.5561,1.273,4.14,1111122 
DISL,ioos:station:DISL:PPTA:1,2013-08-06T14:00:00Z,30.2791,-87.5561,1.274,4.04,1111122 
DISL,ioos:station:DISL:PPTA:1,2013-08-06T14:30:00Z,30.2791,-87.5561,1.282,4.21,1111122 
DISL,ioos:station:DISL:PPTA:1,2013-08-06T15:00:00Z,30.2791,-87.5561,1.281,4.54,1111122 
DISL,ioos:station:DISL:PPTA:1,2013-08-06T15:30:00Z,30.2791,-87.5561,1.282,4.1,1111122 